Weather History for KACJ - June, 2014

Change the Weather History Date:

Monday, June 30, 2014

  Actual Average (KABY) Record (KABY)
Temperature  
Mean Temperature 82 °F 82 °F  
Max Temperature 95 °F 92 °F 106 °F (1931)
Min Temperature 69 °F 72 °F 58 °F (1970)
Degree Days  
Heating Degree Days 0 0  
Month to date heating degree days 0  
Since 1 June heating degree days 0  
Since 1 July heating degree days 1838  
Cooling Degree Days 17 17  
Month to date cooling degree days 465  
Year to date cooling degree days 905  
Since 1 June cooling degree days 465  
Growing Degree Days 32 (Base 50)    
Moisture  
Dew Point 70 °F    
Average Humidity 77    
Maximum Humidity 100    
Minimum Humidity 36    
Precipitation  
Precipitation 0.00 in 0.15 in - ()
Month to date precipitation 4.94  
Year to date precipitation 25.30  
Sea Level Pressure  
Sea Level Pressure 30.07 in    
Wind  
Wind Speed 3 mph (West)    
Max Wind Speed 18 mph    
Max Gust Speed 30 mph    
Visibility 10 miles    
Events Rain , Thunderstorm    
T = Trace of Precipitation, MM = Missing Value Source: NWS Daily Summary

Daily Weather History Graph

Daily Weather History Graph

Search for Another Location

Airport or City:

Trip Planner

Search our weather history database for the weather conditions in past years. The results will help you decide how hot, cold, wet, or windy it might be!

Date:

Astronomy

Jun. 30, 2014 Rise Set
Actual Time 6:33 AM EDT 8:47 PM EDT
Civil Twilight 6:05 AM EDT 9:15 PM EDT
Nautical Twilight 5:30 AM EDT 9:49 PM EDT
Astronomical Twilight 4:53 AM EDT 10:27 PM EDT
Moon 9:33 AM EDT (6/30) 10:53 PM EDT (6/30)
Length of Visible Light 15h 09m
Length of Day
14h 13m
Waxing Crescent, 10% of the Moon is Illuminated
Jun 30
Waxing Crescent
Jul 5
First Quarter
Jul 12
Full
Jul 18
Last Quarter
Jul 26
New

Hourly Weather History & Observations

Time (EDT) Temp. Heat Index Dew Point Humidity Pressure Visibility Wind Dir Wind Speed Gust Speed Precip Events Conditions
12:15 AM 77.0 °F - 69.8 °F 78% 30.14 in 10.0 mi NNE 3.5 mph - N/A   Clear
12:35 AM 75.2 °F - 69.8 °F 83% 30.13 in 10.0 mi East 3.5 mph - N/A   Clear
12:55 AM 73.4 °F - 69.8 °F 88% 30.13 in 10.0 mi Calm Calm - N/A   Clear
1:15 AM 73.4 °F - 69.8 °F 88% 30.13 in 10.0 mi Calm Calm - N/A   Clear
1:35 AM 73.4 °F - 69.8 °F 88% 30.12 in 10.0 mi Calm Calm - N/A   Clear
1:55 AM 73.4 °F - 69.8 °F 88% 30.11 in 10.0 mi Calm Calm - N/A   Clear
2:15 AM 73.4 °F - 69.8 °F 88% 30.10 in 10.0 mi Calm Calm - N/A   Clear
2:35 AM 71.6 °F - 69.8 °F 94% 30.10 in 10.0 mi Calm Calm - N/A   Clear
2:55 AM 71.6 °F - 69.8 °F 94% 30.09 in 10.0 mi Calm Calm - N/A   Clear
3:15 AM 71.6 °F - 69.8 °F 94% 30.08 in 10.0 mi Calm Calm - N/A   Clear
3:35 AM 71.6 °F - 69.8 °F 94% 30.09 in 10.0 mi Calm Calm - N/A   Clear
3:55 AM 71.6 °F - 69.8 °F 94% 30.09 in 10.0 mi Calm Calm - N/A   Clear
4:15 AM 69.8 °F - 69.8 °F 100% 30.08 in 10.0 mi Calm Calm - N/A   Scattered Clouds
4:35 AM 69.8 °F - 69.8 °F 100% 30.09 in 10.0 mi Calm Calm - N/A   Mostly Cloudy
4:55 AM 69.8 °F - 69.8 °F 100% 30.10 in 10.0 mi Calm Calm - N/A   Mostly Cloudy
5:15 AM 69.8 °F - 68.0 °F 94% 30.10 in 10.0 mi Calm Calm - N/A   Mostly Cloudy
5:35 AM 69.8 °F - 69.8 °F 100% 30.09 in 10.0 mi Calm Calm - N/A   Mostly Cloudy
5:55 AM 69.8 °F - 69.8 °F 100% 30.09 in 10.0 mi Calm Calm - N/A   Mostly Cloudy
6:15 AM 69.8 °F - 69.8 °F 100% 30.10 in 10.0 mi Calm Calm - N/A   Scattered Clouds
6:35 AM 69.8 °F - 68.0 °F 94% 30.11 in 10.0 mi Calm Calm - N/A   Mostly Cloudy
6:55 AM 69.8 °F - 69.8 °F 100% 30.11 in 10.0 mi Calm Calm - N/A   Mostly Cloudy
7:15 AM 71.6 °F - 69.8 °F 94% 30.11 in 10.0 mi Calm Calm - N/A   Overcast
7:35 AM 71.6 °F - 69.8 °F 94% 30.12 in 10.0 mi Calm Calm - N/A   Overcast
7:55 AM 73.4 °F - 69.8 °F 88% 30.12 in 10.0 mi Calm Calm - N/A   Overcast
8:15 AM 75.2 °F - 71.6 °F 89% 30.13 in 10.0 mi Calm Calm - N/A   Mostly Cloudy
8:35 AM 77.0 °F - 71.6 °F 83% 30.13 in 10.0 mi South 3.5 mph - N/A   Mostly Cloudy
8:55 AM 78.8 °F - 73.4 °F 83% 30.13 in 10.0 mi South 8.1 mph - N/A   Scattered Clouds
9:15 AM 80.6 °F 84.6 °F 71.6 °F 74% 30.13 in 10.0 mi South 6.9 mph - N/A   Clear
9:35 AM 80.6 °F 85.4 °F 73.4 °F 79% 30.13 in 10.0 mi SSW 5.8 mph - N/A   Clear
9:55 AM 82.4 °F 88.2 °F 73.4 °F 74% 30.13 in 10.0 mi SW 5.8 mph - N/A   Clear
10:15 AM 82.4 °F 88.2 °F 73.4 °F 74% 30.13 in 10.0 mi SSW 4.6 mph - N/A   Clear
10:35 AM 84.2 °F 90.9 °F 73.4 °F 70% 30.13 in 10.0 mi South 5.8 mph - N/A   Clear
10:55 AM 84.2 °F 90.9 °F 73.4 °F 70% 30.12 in 10.0 mi South 3.5 mph - N/A   Clear
11:15 AM 86.0 °F 91.8 °F 71.6 °F 62% 30.11 in 10.0 mi West 3.5 mph - N/A   Scattered Clouds
11:35 AM 86.0 °F 91.8 °F 71.6 °F 62% 30.12 in 10.0 mi Calm Calm - N/A   Clear
11:55 AM 87.8 °F 92.6 °F 69.8 °F 55% 30.11 in 10.0 mi West 4.6 mph - N/A   Mostly Cloudy
12:15 PM 87.8 °F 92.6 °F 69.8 °F 55% 30.11 in 10.0 mi ESE 3.5 mph - N/A   Mostly Cloudy
12:35 PM 87.8 °F 92.6 °F 69.8 °F 55% 30.10 in 10.0 mi North 4.6 mph - N/A   Scattered Clouds
12:55 PM 87.8 °F 92.6 °F 69.8 °F 55% 30.09 in 10.0 mi NW 4.6 mph - N/A   Scattered Clouds
1:15 PM 89.6 °F 93.4 °F 68.0 °F 49% 30.08 in 10.0 mi Calm Calm - N/A   Scattered Clouds
1:35 PM 91.4 °F 95.4 °F 68.0 °F 46% 30.07 in 10.0 mi West 5.8 mph - N/A   Scattered Clouds
1:55 PM 91.4 °F 95.4 °F 68.0 °F 46% 30.06 in 10.0 mi Calm Calm - N/A   Scattered Clouds
2:15 PM 89.6 °F 93.4 °F 68.0 °F 49% 30.05 in 10.0 mi SSW 3.5 mph - N/A   Mostly Cloudy
2:35 PM 89.6 °F 94.7 °F 69.8 °F 52% 30.04 in 10.0 mi Calm Calm - N/A   Mostly Cloudy
2:55 PM 91.4 °F 95.4 °F 68.0 °F 46% 30.03 in 10.0 mi Calm Calm - N/A   Mostly Cloudy
3:15 PM 91.4 °F 94.0 °F 66.2 °F 43% 30.02 in 10.0 mi WSW 6.9 mph - N/A   Mostly Cloudy
3:35 PM 93.2 °F 94.9 °F 64.4 °F 38% 30.01 in 10.0 mi Calm Calm - N/A   Scattered Clouds
3:55 PM 93.2 °F 94.9 °F 64.4 °F 38% 30.01 in 10.0 mi WSW 8.1 mph - N/A Thunderstorm Scattered Clouds
4:15 PM 95.0 °F 97.0 °F 64.4 °F 36% 29.99 in 10.0 mi WSW 9.2 mph - N/A   Mostly Cloudy
4:35 PM 95.0 °F 97.0 °F 64.4 °F 36% 29.98 in 10.0 mi WSW 9.2 mph - N/A   Scattered Clouds
4:55 PM 95.0 °F 97.0 °F 64.4 °F 36% 29.98 in 10.0 mi SW 8.1 mph - N/A   Mostly Cloudy
5:15 PM 95.0 °F 97.0 °F 64.4 °F 36% 29.97 in 10.0 mi WNW 16.1 mph 20.7 mph N/A   Overcast
5:35 PM 86.0 °F 89.4 °F 68.0 °F 55% 30.00 in 10.0 mi NNE 18.4 mph 29.9 mph N/A Thunderstorm Mostly Cloudy
5:55 PM 78.8 °F - 71.6 °F 78% 30.02 in 10.0 mi North 10.4 mph 21.9 mph N/A Rain , Thunderstorm Thunderstorms and Rain
6:15 PM 75.2 °F - 71.6 °F 89% 30.02 in 10.0 mi North 10.4 mph 19.6 mph N/A Rain , Thunderstorm Light Thunderstorms and Rain
6:35 PM 75.2 °F - 73.4 °F 94% 30.00 in 7.0 mi NE 13.8 mph 17.3 mph N/A Rain , Thunderstorm Light Thunderstorms and Rain
6:55 PM 75.2 °F - 73.4 °F 94% 30.02 in 10.0 mi ENE 8.1 mph - N/A Rain , Thunderstorm Light Thunderstorms and Rain
7:15 PM 75.2 °F - 71.6 °F 89% 30.03 in 10.0 mi East 6.9 mph - N/A Thunderstorm Scattered Clouds
7:35 PM 77.0 °F - 73.4 °F 89% 30.03 in 10.0 mi Calm Calm - N/A Thunderstorm Scattered Clouds
7:55 PM 77.0 °F - 73.4 °F 89% 30.05 in 10.0 mi West 8.1 mph - N/A   Scattered Clouds
8:15 PM 77.0 °F - 71.6 °F 83% 30.03 in 10.0 mi Calm Calm - N/A   Scattered Clouds
8:35 PM 77.0 °F - 71.6 °F 83% 30.02 in 10.0 mi West 5.8 mph - N/A   Clear
8:55 PM 77.0 °F - 71.6 °F 83% 30.02 in 10.0 mi WNW 4.6 mph - N/A   Clear
9:15 PM 77.0 °F - 71.6 °F 83% 30.01 in 10.0 mi WNW 3.5 mph - N/A   Clear
9:35 PM 75.2 °F - 71.6 °F 89% 30.01 in 10.0 mi Calm Calm - N/A   Clear
9:55 PM 73.4 °F - 71.6 °F 94% 30.01 in 10.0 mi NE 3.5 mph - N/A   Clear
10:15 PM 75.2 °F - 71.6 °F 89% 30.01 in 10.0 mi West 3.5 mph - N/A   Clear
10:35 PM 73.4 °F - 73.4 °F 100% 30.01 in 10.0 mi Calm Calm - N/A   Clear
10:55 PM 73.4 °F - 73.4 °F 100% 30.03 in 10.0 mi North 3.5 mph - N/A   Clear
11:15 PM 73.4 °F - 73.4 °F 100% 30.03 in 10.0 mi North 4.6 mph - N/A   Clear
11:35 PM 73.4 °F - 71.6 °F 94% 30.04 in 10.0 mi NNW 5.8 mph - N/A   Clear